SCP
-0 0 0 0 -0 -0 -1 -1 -0 -0 -0 -0 -0 -0 -0 -0 -0 -0 -0 -0 -0 -0 -0 -0 -0 -0 -0 -0 -0 0 0 0 0 0 0 0 0 0 0 0 0 0 0
0 0 0 0 -0 0 -0 -1 -0 -0 -0 -0 -0 -0 -0 -0 -1 -0 -0 -0 -0 -0 -0 -0 -0 -0 -0 -0 -0 0 0 0 0 0 0 0 0 0 0 0 0 0 0
0 0 -0 0 0 -0 -0 -0 -0 -0 -0 -0 -0 -0 -0 -0 -1 -0 -0 -0 -0 -0 -0 -0 -0 -0 -0 -0 -0 -0 0 0 0 0 0 0 0 0 0 0 0 0 0
0 -0 0 0 -0 -0 -1 -0 -0 -0 -0 -0 -0 -0 -0 -0 -0 -0 -0 -0 -0 -0 -0 -0 -0 -0 -0 -0 -0 0 0 0 0 0 0 0 0 0 0 0 0 0 0
0 0 0 0 0 -0 -0 -0 -0 -0 -0 -0 -0 -0 -0 -0 -0 -0 -0 -0 -0 -0 -0 -0 -0 -0 -0 -0 -0 0 0 0 0 0 0 0 0 1 1 0 0 0 0
0 0 0 1 0 0 -0 -0 -0 -0 -0 -0 -0 -0 -0 -0 -0 -0 -0 -0 -0 -0 -0 -0 -0 -0 -0 -0 0 0 0 0 0 0 0 0 0 1 0 0 0 0 0
0 0 0 0 0 0 -0 -0 -0 -0 -0 -0 -0 -0 -0 -0 -0 -0 -0 -0 -0 -0 -0 -0 -0 -0 -0 -0 0 0 0 0 0 0 0 0 1 0 0 0 0 0 0
1 1 1 1 1 1 0 0 0 0 -0 -0 -0 -0 -0 -0 -0 -0 0 0 0 -0 -0 -0 -0 -0 0 0 0 0 0 0 0 0 0 1 0 0 0 0 0 0 0
1 1 1 1 1 1 1 1 1 0 0 0 -0 -0 -0 0 0 0 0 0 0 -0 -0 0 0 0 0 0 0 0 0 0 0 0 0 1 0 0 0 0 0 0 0
1 1 1 1 0 0 0 1 1 1 0 0 0 0 0 0 0 0 0 0 0 0 0 0 0 0 0 0 0 0 0 0 0 0 0 1 0 0 0 0 0 0 0
2 1 1 1 1 0 0 0 1 1 1 0 0 0 0 0 0 0 0 0 0 0 0 0 0 0 0 0 0 0 0 0 0 0 0 0 0 0 0 0 0 0 0
2 2 2 2 1 0 0 0 0 0 0 0 0 0 0 0 0 0 0 0 0 0 0 0 0 0 -0 0 0 0 0 0 0 0 1 0 0 0 0 0 0 0 0
1 2 2 2 2 1 0 0 0 0 0 0 0 0 0 0 0 0 0 0 0 0 0 0 0 0 0 0 0 0 0 0 0 0 0 0 0 0 0 0 0 0 0
0 1 1 2 2 1 1 1 0 0 0 0 0 0 0 0 0 0 0 0 0 0 0 0 0 0 0 0 0 0 0 0 0 0 0 0 0 0 0 0 0 0 0
0 0 1 1 2 2 2 1 1 1 0 0 0 0 0 0 0 0 0 0 0 0 0 0 0 0 0 0 0 0 0 0 0 0 1 0 0 0 0 0 0 0 0
0 0 0 1 2 2 2 2 1 1 1 0 0 0 0 0 0 0 0 0 0 0 0 0 0 0 0 0 0 0 0 0 0 1 1 0 0 0 0 0 0 0 0
0 0 0 1 2 2 2 2 2 1 1 0 0 0 0 0 0 0 0 0 0 0 0 0 0 0 0 0 0 1 1 1 1 1 1 0 0 0 0 0 0 0 0
0 0 1 1 2 2 2 3 2 1 1 1 0 0 0 0 0 0 0 0 0 0 0 0 0 0 0 0 1 1 1 1 1 1 0 0 0 0 0 0 0 0 0
0 0 0 2 3 3 3 3 3 3 2 1 1 1 0 0 0 0 0 0 0 0 0 0 0 0 0 0 1 1 1 1 1 0 0 0 0 0 0 0 0 0 0
0 0 0 1 3 3 4 4 4 3 2 1 1 1 0 0 0 0 0 0 0 0 0 0 0 0 0 1 0 1 0 0 0 0 0 0 0 0 0 0 0 0 0
0 0 0 0 2 4 5 4 5 4 3 2 1 1 1 0 0 0 0 1 1 0 1 1 1 1 1 1 0 0 0 0 0 0 0 0 0 0 0 0 0 0 0
0 0 0 0 1 3 6 5 5 4 3 2 1 1 1 1 1 1 1 1 1 1 1 1 1 1 0 0 0 0 0 0 0 0 0 0 0 0 0 0 0 0 0
0 0 0 1 2 2 3 4 4 6 4 3 2 1 1 1 1 2 1 1 1 1 1 1 1 0 0 0 0 0 0 0 0 0 0 0 0 0 0 0 0 0 0
0 0 0 1 1 2 3 4 4 4 4 2 2 2 2 2 1 1 2 1 1 1 2 1 1 1 1 0 0 0 0 0 0 0 0 0 0 0 0 0 0 0 0
0 0 0 1 1 2 2 2 3 3 2 2 3 3 4 2 1 0 1 1 1 1 1 1 1 1 1 0 0 0 0 0 0 0 0 0 0 0 0 0 0 0 0
0 0 0 0 1 1 2 3 3 4 4 4 3 2 1 1 1 1 1 2 1 1 1 1 1 1 0 0 0 0 0 0 0 0 0 0 0 0 0 0 0 0 0
Wind_Speed_500mb
10 46 62 56 48 44 39 38 42 44 42 35 34 39 42 42 45 49 49 50 51 51 46 38 28 29 27 25 24 24 24 22 18 16 18 19 21 22 25 26 26 13 19
19 48 61 56 49 46 40 39 44 46 43 36 35 39 41 41 45 50 49 49 51 48 43 36 28 26 23 23 21 21 21 16 11 10 12 19 18 19 22 24 23 19 20
20 48 62 57 51 45 39 41 46 48 43 38 35 37 42 42 45 49 48 48 48 45 39 32 26 22 22 23 20 20 18 9 6 8 11 13 10 16 19 23 25 25 26
26 42 62 60 54 46 41 42 44 48 43 40 36 38 43 43 45 46 46 46 45 40 34 29 25 22 22 22 19 17 14 7 5 7 13 5 5 12 19 25 27 28 31
27 40 50 60 55 49 43 42 43 46 43 41 38 38 41 44 44 44 45 43 40 35 32 28 24 21 21 21 18 14 12 5 5 9 2 1 2 14 19 24 30 33 33
24 38 51 62 56 50 44 41 43 43 43 42 39 39 40 43 43 43 43 40 34 31 30 27 24 23 21 20 17 14 10 4 11 2 4 2 4 14 18 24 28 33 39
27 37 49 63 58 51 45 42 42 42 42 43 41 40 40 41 44 42 39 35 29 28 28 25 23 22 21 18 16 14 10 6 9 4 1 3 10 13 18 24 27 32 39
27 35 46 65 58 52 47 43 42 40 41 44 42 41 41 40 42 42 38 33 28 26 24 22 21 21 18 17 15 13 10 9 3 6 5 7 11 13 18 23 26 33 41
34 36 47 63 60 53 47 43 42 40 40 42 44 43 40 39 41 42 39 32 28 25 23 21 20 17 15 14 13 11 10 8 8 9 6 7 11 15 19 22 26 35 43
24 35 45 44 57 56 50 45 43 41 40 42 44 44 43 41 42 42 37 33 31 25 22 20 19 16 14 13 12 10 9 9 5 8 6 18 13 15 18 22 31 38 44
29 32 40 46 44 44 45 51 45 43 42 42 43 44 42 41 46 45 41 37 34 27 24 21 19 16 15 14 12 12 11 5 11 10 11 18 12 17 21 25 32 38 40
30 39 42 50 46 45 40 51 49 46 43 42 44 46 42 37 39 37 42 39 36 32 30 25 21 17 15 12 12 12 9 15 10 11 19 16 15 20 25 27 32 34 38
25 39 49 56 53 48 43 42 39 38 38 39 40 46 38 37 39 39 35 41 36 33 25 25 23 19 18 17 16 13 15 14 13 11 23 15 19 23 26 25 30 33 34
24 36 47 54 58 49 45 44 41 39 40 39 42 49 43 39 38 36 32 31 29 25 27 22 20 23 24 23 19 17 16 14 15 15 21 19 22 24 23 25 30 32 31
32 34 43 53 59 56 51 46 45 43 42 39 41 48 42 39 38 37 34 33 28 29 25 24 23 25 24 21 17 17 17 16 16 15 14 22 24 25 22 25 27 28 28
37 41 44 52 59 59 56 51 47 46 43 42 41 43 48 41 39 37 35 32 29 26 24 24 24 24 22 21 19 18 17 16 17 18 15 20 25 23 23 24 25 24 23
42 43 45 55 61 63 61 58 52 48 45 44 42 44 52 48 45 38 34 32 29 26 25 26 28 27 22 19 20 19 16 17 18 18 14 14 16 21 22 23 22 21 20
44 44 46 54 63 65 61 62 55 50 48 45 43 41 53 49 44 47 36 32 28 26 25 26 26 25 23 22 20 17 19 19 16 21 15 15 15 13 23 22 23 21 20
42 46 47 53 65 66 67 57 58 57 53 47 45 44 52 49 48 47 35 31 34 27 28 28 27 25 24 22 21 17 17 14 17 14 14 14 18 16 13 25 25 25 24
39 45 53 46 65 66 65 63 56 56 53 48 48 48 54 53 50 52 35 33 34 30 30 29 28 26 24 21 15 15 15 13 15 14 14 14 16 15 13 16 17 25 34
35 40 49 51 59 64 70 66 73 76 69 54 52 57 60 50 48 56 38 40 41 33 32 35 32 32 24 21 16 11 12 22 19 11 12 12 15 13 14 15 19 21 25
34 39 44 49 51 65 70 73 66 69 61 55 51 62 63 61 56 55 47 45 46 34 36 39 37 28 22 26 18 19 20 15 9 11 12 12 13 15 14 17 17 19 19
38 39 42 47 50 62 72 70 66 73 50 51 52 57 68 64 60 55 55 41 46 40 39 43 41 34 20 22 29 18 12 15 5 10 11 7 10 9 11 12 11 12 16
50 37 37 41 48 52 70 69 74 56 63 58 58 56 67 69 62 60 60 47 46 42 38 42 38 32 26 18 28 33 32 20 12 9 9 7 5 6 5 5 10 15 22
61 51 43 41 45 52 58 67 74 60 55 50 53 67 62 65 60 65 65 49 48 45 42 38 40 38 29 23 18 16 15 14 23 15 16 8 7 5 4 8 9 15 23
66 59 51 46 46 49 56 65 74 64 61 52 53 57 61 55 69 62 54 49 48 48 43 40 37 39 31 27 16 13 8 5 10 9 12 11 13 11 8 12 17 20 25
Wind_Direction_500mb
195 187 175 173 175 174 173 172 176 177 173 168 163 160 158 162 163 163 161 158 156 155 154 153 151 151 149 147 142 136 129 120 106 89 72 57 47 38 32 27 34 355 353
208 184 180 178 179 176 177 175 178 179 175 170 164 162 161 167 167 166 163 162 161 161 159 157 148 158 159 155 149 144 140 127 95 82 64 40 26 25 21 16 10 356 354
202 186 183 182 182 180 182 177 180 179 177 173 165 164 167 171 169 166 164 165 165 165 168 168 170 164 166 165 158 157 155 141 101 75 69 47 331 5 5 1 358 357 353
184 186 185 185 186 185 185 179 179 179 180 176 169 166 170 172 171 168 167 167 167 171 175 175 176 175 173 172 171 169 169 152 85 61 39 13 314 348 353 351 355 360 359
185 185 189 188 189 188 184 181 181 182 184 180 173 171 171 173 175 172 171 170 169 171 175 178 182 184 182 183 187 185 177 157 58 30 36 328 349 323 347 351 354 359 359
188 183 201 190 191 189 185 182 184 186 187 184 179 176 174 175 178 177 176 176 175 178 179 184 185 188 191 193 197 197 196 175 58 20 184 206 236 316 338 348 357 356 355
183 186 199 190 192 190 188 185 184 189 192 189 187 182 179 179 180 180 181 184 184 184 183 186 187 192 196 200 205 211 217 221 97 244 223 139 284 318 334 345 347 349 350
183 185 193 189 191 192 190 188 186 193 195 194 192 188 184 182 183 184 183 183 185 186 189 192 196 201 203 207 211 219 231 239 222 225 205 260 276 314 330 338 342 343 344
189 186 195 187 191 192 192 191 192 195 197 197 194 191 189 187 186 186 184 185 186 193 196 198 204 207 209 214 218 226 228 217 168 223 207 280 282 310 327 330 335 340 344
185 198 195 181 190 191 192 194 194 196 199 197 196 194 193 191 189 188 188 186 185 192 202 203 210 209 217 224 222 215 202 187 192 226 253 252 279 309 318 319 336 342 349
180 194 189 182 187 183 187 193 194 196 198 199 198 197 194 189 188 188 188 189 190 199 211 214 216 215 217 218 213 203 196 228 245 233 248 268 283 303 311 322 333 343 345
208 202 191 186 188 185 186 194 193 195 194 193 195 193 187 183 182 181 199 196 200 206 214 216 219 221 215 216 216 203 200 234 231 244 252 262 284 301 309 321 334 340 350
224 210 200 196 185 188 187 183 182 186 185 184 185 190 181 186 187 183 196 201 207 210 217 218 216 214 207 208 218 222 230 234 245 256 252 260 295 298 301 323 329 343 350
222 219 208 202 200 185 191 184 186 185 186 187 189 192 189 186 192 190 195 196 196 210 200 195 212 207 206 201 211 223 233 234 248 257 248 257 290 292 302 317 329 342 348
227 216 214 208 205 191 189 189 189 188 190 190 191 196 195 189 191 193 196 197 198 201 203 205 202 209 203 207 221 230 239 234 236 237 246 272 288 286 298 315 329 339 345
233 219 212 216 207 202 194 192 192 191 194 191 193 198 197 192 195 195 196 194 198 199 199 199 199 201 199 210 226 226 226 235 234 237 239 273 284 279 292 309 325 330 337
238 229 216 215 207 201 200 198 195 197 196 196 195 200 202 196 205 192 194 198 199 199 197 189 193 191 201 211 216 227 230 234 230 238 239 256 271 285 285 301 312 321 330
235 231 222 207 214 205 204 204 200 199 197 198 198 200 208 202 203 197 196 197 201 198 193 194 193 199 205 215 226 224 228 223 235 251 250 258 247 269 306 296 307 311 318
230 226 225 213 208 213 204 203 203 202 199 201 198 200 213 204 208 204 200 199 203 196 198 198 203 207 214 211 223 221 230 254 264 267 257 254 248 246 253 289 303 311 305
227 226 227 221 213 212 212 208 201 199 201 202 202 203 215 207 207 206 198 198 199 196 199 202 204 210 214 212 210 218 228 249 263 262 264 261 255 253 272 268 291 305 310
225 225 227 220 218 214 211 207 210 211 206 201 203 207 216 204 204 209 199 201 196 197 198 205 204 204 199 210 200 238 255 268 270 252 255 249 258 270 264 286 297 282 303
228 228 225 218 220 212 213 212 214 214 205 206 206 211 214 213 212 211 199 205 199 198 198 205 208 201 210 217 221 247 256 258 254 252 259 256 256 266 282 295 292 294 299
225 220 216 218 214 212 213 214 214 213 198 198 203 207 208 210 210 211 203 198 208 195 206 212 216 209 218 216 219 235 260 273 234 270 270 259 277 281 285 297 295 304 313
220 221 217 215 212 216 212 214 207 202 203 206 202 201 210 211 209 214 208 204 208 203 210 218 220 212 204 225 236 240 244 251 260 263 249 298 333 347 277 290 309 325 316
219 218 221 214 212 210 212 212 215 210 210 209 203 205 204 207 211 213 210 207 208 201 213 214 213 208 217 220 229 235 243 259 251 260 283 277 306 306 319 342 310 328 331
219 219 219 218 216 211 211 219 213 212 204 205 198 201 200 200 208 207 202 207 207 208 214 209 211 213 215 218 215 204 170 211 255 262 285 298 277 286 302 314 331 330 333
Wind_Speed_850mb
10 46 62 56 48 44 39 38 42 44 42 35 34 39 42 42 45 49 49 50 51 51 46 38 28 29 27 25 24 24 24 22 18 16 18 19 21 22 25 26 26 13 19
19 48 61 56 49 46 40 39 44 46 43 36 35 39 41 41 45 50 49 49 51 48 43 36 28 26 23 23 21 21 21 16 11 10 12 19 18 19 22 24 23 19 20
20 48 62 57 51 45 39 41 46 48 43 38 35 37 42 42 45 49 48 48 48 45 39 32 26 22 22 23 20 20 18 9 6 8 11 13 10 16 19 23 25 25 26
26 42 62 60 54 46 41 42 44 48 43 40 36 38 43 43 45 46 46 46 45 40 34 29 25 22 22 22 19 17 14 7 5 7 13 5 5 12 19 25 27 28 31
27 40 50 60 55 49 43 42 43 46 43 41 38 38 41 44 44 44 45 43 40 35 32 28 24 21 21 21 18 14 12 5 5 9 2 1 2 14 19 24 30 33 33
24 38 51 62 56 50 44 41 43 43 43 42 39 39 40 43 43 43 43 40 34 31 30 27 24 23 21 20 17 14 10 4 11 2 4 2 4 14 18 24 28 33 39
27 37 49 63 58 51 45 42 42 42 42 43 41 40 40 41 44 42 39 35 29 28 28 25 23 22 21 18 16 14 10 6 9 4 1 3 10 13 18 24 27 32 39
27 35 46 65 58 52 47 43 42 40 41 44 42 41 41 40 42 42 38 33 28 26 24 22 21 21 18 17 15 13 10 9 3 6 5 7 11 13 18 23 26 33 41
34 36 47 63 60 53 47 43 42 40 40 42 44 43 40 39 41 42 39 32 28 25 23 21 20 17 15 14 13 11 10 8 8 9 6 7 11 15 19 22 26 35 43
24 35 45 44 57 56 50 45 43 41 40 42 44 44 43 41 42 42 37 33 31 25 22 20 19 16 14 13 12 10 9 9 5 8 6 18 13 15 18 22 31 38 44
29 32 40 46 44 44 45 51 45 43 42 42 43 44 42 41 46 45 41 37 34 27 24 21 19 16 15 14 12 12 11 5 11 10 11 18 12 17 21 25 32 38 40
30 39 42 50 46 45 40 51 49 46 43 42 44 46 42 37 39 37 42 39 36 32 30 25 21 17 15 12 12 12 9 15 10 11 19 16 15 20 25 27 32 34 38
25 39 49 56 53 48 43 42 39 38 38 39 40 46 38 37 39 39 35 41 36 33 25 25 23 19 18 17 16 13 15 14 13 11 23 15 19 23 26 25 30 33 34
24 36 47 54 58 49 45 44 41 39 40 39 42 49 43 39 38 36 32 31 29 25 27 22 20 23 24 23 19 17 16 14 15 15 21 19 22 24 23 25 30 32 31
32 34 43 53 59 56 51 46 45 43 42 39 41 48 42 39 38 37 34 33 28 29 25 24 23 25 24 21 17 17 17 16 16 15 14 22 24 25 22 25 27 28 28
37 41 44 52 59 59 56 51 47 46 43 42 41 43 48 41 39 37 35 32 29 26 24 24 24 24 22 21 19 18 17 16 17 18 15 20 25 23 23 24 25 24 23
42 43 45 55 61 63 61 58 52 48 45 44 42 44 52 48 45 38 34 32 29 26 25 26 28 27 22 19 20 19 16 17 18 18 14 14 16 21 22 23 22 21 20
44 44 46 54 63 65 61 62 55 50 48 45 43 41 53 49 44 47 36 32 28 26 25 26 26 25 23 22 20 17 19 19 16 21 15 15 15 13 23 22 23 21 20
42 46 47 53 65 66 67 57 58 57 53 47 45 44 52 49 48 47 35 31 34 27 28 28 27 25 24 22 21 17 17 14 17 14 14 14 18 16 13 25 25 25 24
39 45 53 46 65 66 65 63 56 56 53 48 48 48 54 53 50 52 35 33 34 30 30 29 28 26 24 21 15 15 15 13 15 14 14 14 16 15 13 16 17 25 34
35 40 49 51 59 64 70 66 73 76 69 54 52 57 60 50 48 56 38 40 41 33 32 35 32 32 24 21 16 11 12 22 19 11 12 12 15 13 14 15 19 21 25
34 39 44 49 51 65 70 73 66 69 61 55 51 62 63 61 56 55 47 45 46 34 36 39 37 28 22 26 18 19 20 15 9 11 12 12 13 15 14 17 17 19 19
38 39 42 47 50 62 72 70 66 73 50 51 52 57 68 64 60 55 55 41 46 40 39 43 41 34 20 22 29 18 12 15 5 10 11 7 10 9 11 12 11 12 16
50 37 37 41 48 52 70 69 74 56 63 58 58 56 67 69 62 60 60 47 46 42 38 42 38 32 26 18 28 33 32 20 12 9 9 7 5 6 5 5 10 15 22
61 51 43 41 45 52 58 67 74 60 55 50 53 67 62 65 60 65 65 49 48 45 42 38 40 38 29 23 18 16 15 14 23 15 16 8 7 5 4 8 9 15 23
66 59 51 46 46 49 56 65 74 64 61 52 53 57 61 55 69 62 54 49 48 48 43 40 37 39 31 27 16 13 8 5 10 9 12 11 13 11 8 12 17 20 25
Wind_Direction_850mb
195 187 175 173 175 174 173 172 176 177 173 168 163 160 158 162 163 163 161 158 156 155 154 153 151 151 149 147 142 136 129 120 106 89 72 57 47 38 32 27 34 355 353
208 184 180 178 179 176 177 175 178 179 175 170 164 162 161 167 167 166 163 162 161 161 159 157 148 158 159 155 149 144 140 127 95 82 64 40 26 25 21 16 10 356 354
202 186 183 182 182 180 182 177 180 179 177 173 165 164 167 171 169 166 164 165 165 165 168 168 170 164 166 165 158 157 155 141 101 75 69 47 331 5 5 1 358 357 353
184 186 185 185 186 185 185 179 179 179 180 176 169 166 170 172 171 168 167 167 167 171 175 175 176 175 173 172 171 169 169 152 85 61 39 13 314 348 353 351 355 360 359
185 185 189 188 189 188 184 181 181 182 184 180 173 171 171 173 175 172 171 170 169 171 175 178 182 184 182 183 187 185 177 157 58 30 36 328 349 323 347 351 354 359 359
188 183 201 190 191 189 185 182 184 186 187 184 179 176 174 175 178 177 176 176 175 178 179 184 185 188 191 193 197 197 196 175 58 20 184 206 236 316 338 348 357 356 355
183 186 199 190 192 190 188 185 184 189 192 189 187 182 179 179 180 180 181 184 184 184 183 186 187 192 196 200 205 211 217 221 97 244 223 139 284 318 334 345 347 349 350
183 185 193 189 191 192 190 188 186 193 195 194 192 188 184 182 183 184 183 183 185 186 189 192 196 201 203 207 211 219 231 239 222 225 205 260 276 314 330 338 342 343 344
189 186 195 187 191 192 192 191 192 195 197 197 194 191 189 187 186 186 184 185 186 193 196 198 204 207 209 214 218 226 228 217 168 223 207 280 282 310 327 330 335 340 344
185 198 195 181 190 191 192 194 194 196 199 197 196 194 193 191 189 188 188 186 185 192 202 203 210 209 217 224 222 215 202 187 192 226 253 252 279 309 318 319 336 342 349
180 194 189 182 187 183 187 193 194 196 198 199 198 197 194 189 188 188 188 189 190 199 211 214 216 215 217 218 213 203 196 228 245 233 248 268 283 303 311 322 333 343 345
208 202 191 186 188 185 186 194 193 195 194 193 195 193 187 183 182 181 199 196 200 206 214 216 219 221 215 216 216 203 200 234 231 244 252 262 284 301 309 321 334 340 350
224 210 200 196 185 188 187 183 182 186 185 184 185 190 181 186 187 183 196 201 207 210 217 218 216 214 207 208 218 222 230 234 245 256 252 260 295 298 301 323 329 343 350
222 219 208 202 200 185 191 184 186 185 186 187 189 192 189 186 192 190 195 196 196 210 200 195 212 207 206 201 211 223 233 234 248 257 248 257 290 292 302 317 329 342 348
227 216 214 208 205 191 189 189 189 188 190 190 191 196 195 189 191 193 196 197 198 201 203 205 202 209 203 207 221 230 239 234 236 237 246 272 288 286 298 315 329 339 345
233 219 212 216 207 202 194 192 192 191 194 191 193 198 197 192 195 195 196 194 198 199 199 199 199 201 199 210 226 226 226 235 234 237 239 273 284 279 292 309 325 330 337
238 229 216 215 207 201 200 198 195 197 196 196 195 200 202 196 205 192 194 198 199 199 197 189 193 191 201 211 216 227 230 234 230 238 239 256 271 285 285 301 312 321 330
235 231 222 207 214 205 204 204 200 199 197 198 198 200 208 202 203 197 196 197 201 198 193 194 193 199 205 215 226 224 228 223 235 251 250 258 247 269 306 296 307 311 318
230 226 225 213 208 213 204 203 203 202 199 201 198 200 213 204 208 204 200 199 203 196 198 198 203 207 214 211 223 221 230 254 264 267 257 254 248 246 253 289 303 311 305
227 226 227 221 213 212 212 208 201 199 201 202 202 203 215 207 207 206 198 198 199 196 199 202 204 210 214 212 210 218 228 249 263 262 264 261 255 253 272 268 291 305 310
225 225 227 220 218 214 211 207 210 211 206 201 203 207 216 204 204 209 199 201 196 197 198 205 204 204 199 210 200 238 255 268 270 252 255 249 258 270 264 286 297 282 303
228 228 225 218 220 212 213 212 214 214 205 206 206 211 214 213 212 211 199 205 199 198 198 205 208 201 210 217 221 247 256 258 254 252 259 256 256 266 282 295 292 294 299
225 220 216 218 214 212 213 214 214 213 198 198 203 207 208 210 210 211 203 198 208 195 206 212 216 209 218 216 219 235 260 273 234 270 270 259 277 281 285 297 295 304 313
220 221 217 215 212 216 212 214 207 202 203 206 202 201 210 211 209 214 208 204 208 203 210 218 220 212 204 225 236 240 244 251 260 263 249 298 333 347 277 290 309 325 316
219 218 221 214 212 210 212 212 215 210 210 209 203 205 204 207 211 213 210 207 208 201 213 214 213 208 217 220 229 235 243 259 251 260 283 277 306 306 319 342 310 328 331
219 219 219 218 216 211 211 219 213 212 204 205 198 201 200 200 208 207 202 207 207 208 214 209 211 213 215 218 215 204 170 211 255 262 285 298 277 286 302 314 331 330 333